Terug naar catalogus

DELTA 1 DEB

ActiefLEO
NORAD 42083·DEBRIS·🇺🇸 United States

Gelanceerd Dec 15, 1968 vanaf Vandenberg Space Force Base

Loading…

Volgende Passages (komende 24 uur)

TLE

VerouderdSource: Space-Track

Epoch: Sep 1, 2026, 09:45 UTC

1 42083U 68114K   26244.40640212 -.00000059  00000-0 -13553-4 0  9991
2 42083 101.8642 289.1594 0280579 307.0973  65.3630 13.02320949 58097

Volg DELTA 1 DEB in realtime met AllMySat

Download on the App Store